GW4411 Weather Reports


time (UTC)temp
F
wind
direction
speed
knots
gust
knots
rain 1hr
in
rain 24hr
in
rain mn
in
humidity
%
barometer
mb
20260505003604 80 172 0.9 4.3 0.00 0.00 0.00 72 1016.6
20260505002706 79 80 0.9 3.5 0.00 0.00 0.00 74 1016.8
20260505001804 78 54 0.9 3.5 0.00 0.00 0.00 74 1016.9
20260505000912 78 271 0.9 4.3 0.00 0.00 0.00 77 1017.0
20260505000006 76 165 0.9 3.5 0.00 0.00 0.00 80 1017.0
20260504235404 76 202 0.0 1.7 0.00 0.00 0.00 80 1017.0
20260504234510 74 167 0.9 3.5 0.00 0.00 0.00 82 1017.1
20260504233819 74 181 1.7 4.3 0.00 0.00 0.00 83 1017.3
20260504232704 74 187 0.0 3.5 0.00 0.00 0.00 84 1017.1
20260504231818 74 207 0.9 4.3 0.00 0.01 0.00 83 1017.3
20260504230904 74 181 0.0 3.5 0.00 0.01 0.00 85 1017.3
20260504230011 74 161 0.9 3.5 0.00 0.01 0.00 88 1017.2
20260504225404 73 149 0.9 3.5 0.00 0.01 0.00 92 1017.3
20260504224505 70 204 0.9 4.3 0.00 0.01 0.00 97 1017.2
20260504223608 69 207 0.9 5.2 0.00 0.01 0.00 98 1017.3
20260504222708 68 207 0.9 4.3 0.00 0.01 0.00 98 1017.3
20260504222024 68 206 0.9 3.5 0.00 0.01 0.00 98 1017.2
20260504220903 68 214 0.0 1.7 0.00 0.01 0.00 98 1017.2
20260504220005 67 233 0.0 0.9 0.00 0.01 0.00 98 1017.2
20260504215619 67 246 0.0 0.9 0.00 0.01 0.00 98 1017.2
20260504214733 66 257 0.9 1.7 0.00 0.01 0.00 98 1017.1
20260504213608 65 262 0.0 0.9 0.00 0.01 0.00 98 1017.2
20260504212711 64 0 0.0 0.0 0.00 0.01 0.00 98 1017.1
20260504211804 63 0 0.0 0.0 0.00 0.02 0.00 98 1017.1
20260504210904 62 0 0.0 0.0 0.00 0.04 0.00 98 1017.0
20260504210006 62 0 0.0 0.0 0.00 0.06 0.00 97 1016.9
20260504204514 61 0 0.0 0.0 0.00 0.06 0.00 97 1016.6
20260504203817 61 0 0.0 0.0 0.00 0.06 0.00 97 1016.6
20260504202920 61 265 0.0 1.7 0.00 0.06 0.00 97 1016.6
20260504201812 61 265 0.0 0.9 0.00 0.06 0.00 97 1016.6
20260504200909 61 0 0.0 0.0 0.00 0.06 0.00 97 1016.5
20260504200005 61 0 0.0 0.0 0.00 0.06 0.00 97 1016.3
20260504195409 61 0 0.0 0.0 0.00 0.06 0.00 97 1016.3
20260504194505 62 0 0.0 0.0 0.00 0.06 0.00 97 1016.1
20260504193823 62 0 0.0 0.0 0.00 0.06 0.00 97 1016.1
20260504192704 62 0 0.0 0.0 0.00 0.06 0.00 97 1016.0
20260504191806 62 0 0.0 0.0 0.00 0.06 0.00 97 1015.9
20260504191117 62 0 0.0 0.0 0.00 0.06 0.00 97 1015.9
20260504190006 62 264 0.0 0.9 0.00 0.06 0.00 97 1015.9
20260504185404 62 0 0.0 0.0 0.00 0.06 0.00 97 1015.8
20260504184511 62 264 0.0 0.9 0.00 0.06 0.00 97 1015.9
20260504183609 62 264 0.0 0.9 0.00 0.06 0.00 97 1015.8
20260504182704 62 0 0.0 0.0 0.00 0.06 0.00 97 1015.8
20260504181803 62 0 0.0 0.0 0.00 0.06 0.00 97 1015.6
20260504180909 62 0 0.0 0.0 0.00 0.06 0.00 97 1015.5
20260504180005 63 0 0.0 0.0 0.00 0.06 0.00 97 1015.5
20260504175404 62 0 0.0 0.0 0.00 0.06 0.00 97 1015.5
20260504174505 63 0 0.0 0.0 0.00 0.06 0.00 97 1015.5
20260504173603 63 0 0.0 0.0 0.00 0.06 0.00 96 1015.6
20260504172704 63 0 0.0 0.0 0.00 0.06 0.00 97 1015.7
20260504171818 63 0 0.0 0.0 0.00 0.06 0.00 97 1015.7
20260504170903 64 0 0.0 0.0 0.00 0.06 0.00 97 1015.6
20260504151118 63 0 0.0 0.0 0.00 0.06 0.00 96 1016.2
20260504140904 64 0 0.0 0.0 0.00 0.06 0.00 96 1016.7
20260504140220 65 0 0.0 0.0 0.00 0.06 0.00 96 1016.7
20260504081804 71 0 0.0 0.0 0.00 0.06 0.06 87 1016.7
20260504080904 71 85 0.0 1.7 0.00 0.06 0.06 86 1016.6
20260504080218 72 0 0.0 0.0 0.00 0.06 0.06 86 1016.4
20260504050010 80 98 0.9 4.3 0.00 0.06 0.06 69 1015.5
20260504045409 80 97 0.9 6.1 0.00 0.06 0.06 70 1015.4
20260504044505 80 99 2.6 7.8 0.00 0.06 0.06 69 1015.4
20260504043817 80 92 2.6 6.1 0.00 0.06 0.06 68 1015.3
20260504042703 81 78 1.7 3.5 0.00 0.06 0.06 67 1015.4
20260504041809 80 100 0.9 4.3 0.00 0.06 0.06 67 1015.4
20260504040917 79 98 0.9 4.3 0.00 0.06 0.06 70 1015.4
20260504040005 79 52 1.7 4.3 0.00 0.06 0.06 70 1015.5
20260504035404 77 47 2.6 5.2 0.00 0.06 0.06 71 1015.6
20260504034505 77 68 1.7 4.3 0.00 0.06 0.06 73 1015.5
20260504033817 77 79 1.7 4.3 0.00 0.06 0.06 73 1015.6
20260504032704 79 87 0.9 3.5 0.00 0.06 0.06 71 1015.6
20260504031804 77 73 0.9 3.5 0.00 0.06 0.06 72 1015.8
20260504030906 78 64 1.7 5.2 0.00 0.06 0.06 71 1015.7
20260504030010 78 41 2.6 6.1 0.00 0.06 0.06 72 1015.9
20260504025404 78 33 1.7 6.1 0.00 0.06 0.06 71 1016.0
20260504024505 77 50 0.9 3.5 0.00 0.06 0.06 74 1016.3
20260504023604 78 47 0.9 4.3 0.00 0.06 0.06 73 1016.3
20260504022703 80 62 1.7 4.3 0.00 0.06 0.06 69 1016.5
20260504021803 80 95 0.9 4.3 0.00 0.06 0.06 72 1016.6
20260504021119 79 99 0.9 3.5 0.00 0.06 0.06 72 1016.7
20260504020005 78 63 1.7 5.2 0.00 0.06 0.06 76 1016.8